Date_UTC,IAGA,MLT,MLAT,IGRF_DECL,SZA,N,E,Z
2015-08-15 08:00:00,BJN,10.23,71.89,9.45,64.68,-0.6,17.4,2.8
2015-08-15 08:01:00,BJN,10.25,71.89,9.45,64.63,-2.5,21.6,4.7
2015-08-15 08:02:00,BJN,10.26,71.89,9.45,64.59,-3.8,20.5,3.0
2015-08-15 08:03:00,BJN,10.28,71.89,9.45,64.54,-3.9,17.0,0.0
2015-08-15 08:04:00,BJN,10.30,71.89,9.45,64.49,-3.9,17.5,-0.5
2015-08-15 08:05:00,BJN,10.31,71.89,9.45,64.44,-3.9,19.9,0.7
2015-08-15 08:06:00,BJN,10.33,71.89,9.45,64.40,-4.4,21.3,0.6
2015-08-15 08:07:00,BJN,10.35,71.89,9.45,64.35,-2.8,21.5,0.7
2015-08-15 08:08:00,BJN,10.36,71.89,9.45,64.31,-3.4,22.0,2.0
2015-08-15 08:09:00,BJN,10.38,71.89,9.45,64.26,-2.8,23.7,2.6
2015-08-15 08:10:00,BJN,10.40,71.89,9.45,64.21,-1.7,23.7,2.4
2015-08-15 08:11:00,BJN,10.41,71.89,9.45,64.17,0.0,22.8,2.0
2015-08-15 08:12:00,BJN,10.43,71.89,9.45,64.12,2.0,21.2,1.8
2015-08-15 08:13:00,BJN,10.45,71.89,9.45,64.08,3.2,21.5,2.8
2015-08-15 08:14:00,BJN,10.46,71.89,9.45,64.03,3.1,19.8,3.6
2015-08-15 08:15:00,BJN,10.48,71.89,9.45,63.99,2.1,20.8,4.7
2015-08-15 08:16:00,BJN,10.50,71.89,9.45,63.94,1.6,18.2,3.1
2015-08-15 08:17:00,BJN,10.51,71.89,9.45,63.90,3.3,14.1,1.9
2015-08-15 08:18:00,BJN,10.53,71.89,9.45,63.86,0.5,18.5,5.6
2015-08-15 08:19:00,BJN,10.55,71.89,9.45,63.81,-6.2,26.0,9.0
2015-08-15 08:20:00,BJN,10.56,71.89,9.45,63.77,-8.8,28.8,6.1
2015-08-15 08:21:00,BJN,10.58,71.89,9.45,63.73,-3.5,26.3,-0.3
2015-08-15 08:22:00,BJN,10.60,71.89,9.45,63.68,2.7,19.6,-4.8
2015-08-15 08:23:00,BJN,10.61,71.89,9.45,63.64,6.7,12.7,-5.0
2015-08-15 08:24:00,BJN,10.63,71.89,9.45,63.60,4.0,16.2,0.8
2015-08-15 08:25:00,BJN,10.65,71.89,9.45,63.56,-3.3,23.2,6.5
2015-08-15 08:26:00,BJN,10.66,71.89,9.45,63.52,-7.7,26.6,5.4
2015-08-15 08:27:00,BJN,10.68,71.89,9.45,63.47,-5.5,24.2,-0.1
2015-08-15 08:28:00,BJN,10.70,71.89,9.45,63.43,-1.4,20.0,-4.1
2015-08-15 08:29:00,BJN,10.71,71.89,9.45,63.39,-31.5,-6.0,-6.1
2015-08-15 08:30:00,BJN,10.73,71.89,9.45,63.35,-6.6,-2.9,-23.5
2015-08-15 08:31:00,BJN,10.75,71.89,9.45,63.31,37.4,12.0,-13.8
2015-08-15 08:32:00,BJN,10.76,71.89,9.45,63.27,42.9,12.7,14.4
2015-08-15 08:33:00,BJN,10.78,71.89,9.45,63.23,41.7,67.4,50.1
2015-08-15 08:34:00,BJN,10.80,71.89,9.45,63.19,53.4,56.2,38.7
2015-08-15 08:35:00,BJN,10.81,71.89,9.45,63.15,81.9,8.3,29.2
2015-08-15 08:36:00,BJN,10.83,71.89,9.45,63.11,63.6,28.3,52.5
2015-08-15 08:37:00,BJN,10.85,71.89,9.45,63.07,32.2,73.9,79.2
2015-08-15 08:38:00,BJN,10.87,71.89,9.45,63.03,28.0,67.9,73.5
2015-08-15 08:39:00,BJN,10.88,71.89,9.45,62.99,35.9,94.4,90.7
2015-08-15 08:40:00,BJN,10.90,71.89,9.45,62.95,46.2,108.5,103.4
2015-08-15 08:41:00,BJN,10.92,71.89,9.45,62.92,74.6,119.4,119.3
2015-08-15 08:42:00,BJN,10.93,71.89,9.45,62.88,94.8,94.3,131.1
2015-08-15 08:43:00,BJN,10.95,71.89,9.45,62.84,94.0,88.4,143.9
2015-08-15 08:44:00,BJN,10.97,71.89,9.45,62.80,82.6,53.3,139.5
2015-08-15 08:45:00,BJN,10.98,71.89,9.45,62.77,90.9,78.2,150.3
2015-08-15 08:46:00,BJN,11.00,71.89,9.45,62.73,76.1,65.5,152.8
2015-08-15 08:47:00,BJN,11.02,71.89,9.45,62.69,71.8,68.4,151.4
2015-08-15 08:48:00,BJN,11.03,71.89,9.45,62.66,76.5,58.2,148.7
2015-08-15 08:49:00,BJN,11.05,71.89,9.45,62.62,73.4,78.7,161.2
2015-08-15 08:50:00,BJN,11.07,71.89,9.45,62.58,52.3,50.3,144.3
2015-08-15 08:51:00,BJN,11.08,71.89,9.45,62.55,56.2,49.7,134.8
2015-08-15 08:52:00,BJN,11.10,71.89,9.45,62.51,46.2,56.8,141.5
2015-08-15 08:53:00,BJN,11.12,71.89,9.45,62.48,41.9,60.3,138.4
2015-08-15 08:54:00,BJN,11.13,71.89,9.45,62.44,49.2,87.1,144.7
2015-08-15 08:55:00,BJN,11.15,71.89,9.45,62.41,54.9,79.1,147.1
2015-08-15 08:56:00,BJN,11.17,71.89,9.45,62.38,65.9,87.2,153.3
2015-08-15 08:57:00,BJN,11.18,71.89,9.45,62.34,61.5,60.9,149.7
2015-08-15 08:58:00,BJN,11.20,71.89,9.45,62.31,67.4,62.0,149.2
2015-08-15 08:59:00,BJN,11.22,71.89,9.45,62.27,65.8,56.1,150.2
2015-08-15 09:00:00,BJN,11.23,71.89,9.45,62.24,72.9,41.8,149.1
2015-08-15 09:01:00,BJN,11.25,71.89,9.45,62.21,68.3,34.6,148.7
2015-08-15 09:02:00,BJN,11.27,71.89,9.45,62.18,64.2,28.0,136.1
2015-08-15 09:03:00,BJN,11.28,71.89,9.45,62.14,69.0,11.0,122.8
2015-08-15 09:04:00,BJN,11.30,71.89,9.45,62.11,49.6,-7.3,115.4
2015-08-15 09:05:00,BJN,11.32,71.89,9.45,62.08,23.7,-11.2,101.5
2015-08-15 09:06:00,BJN,11.33,71.89,9.45,62.05,10.0,10.7,96.9
2015-08-15 09:07:00,BJN,11.35,71.89,9.45,62.02,14.4,45.5,103.7
2015-08-15 09:08:00,BJN,11.37,71.89,9.45,61.99,23.7,37.7,100.3
2015-08-15 09:09:00,BJN,11.38,71.89,9.45,61.96,37.9,27.9,96.8
2015-08-15 09:10:00,BJN,11.40,71.89,9.45,61.93,32.0,12.0,96.5
2015-08-15 09:11:00,BJN,11.42,71.89,9.45,61.90,35.7,17.8,93.4
2015-08-15 09:12:00,BJN,11.43,71.89,9.45,61.87,39.3,0.7,83.0
2015-08-15 09:13:00,BJN,11.45,71.89,9.45,61.84,24.4,-8.4,77.4
2015-08-15 09:14:00,BJN,11.47,71.89,9.45,61.81,11.0,5.5,78.9
2015-08-15 09:15:00,BJN,11.49,71.89,9.45,61.78,44.1,13.1,76.3
2015-08-15 09:16:00,BJN,11.50,71.89,9.45,61.75,60.7,4.6,86.8
2015-08-15 09:17:00,BJN,11.52,71.89,9.45,61.72,74.7,0.5,99.8
2015-08-15 09:18:00,BJN,11.54,71.89,9.45,61.69,53.4,-19.6,108.3
2015-08-15 09:19:00,BJN,11.55,71.89,9.45,61.67,49.8,5.0,117.3
2015-08-15 09:20:00,BJN,11.57,71.89,9.45,61.64,68.3,3.2,125.8
2015-08-15 09:21:00,BJN,11.59,71.89,9.45,61.61,77.4,7.5,146.8
2015-08-15 09:22:00,BJN,11.60,71.89,9.45,61.58,68.0,16.6,161.1
2015-08-15 09:23:00,BJN,11.62,71.89,9.45,61.56,70.0,30.4,170.4
2015-08-15 09:24:00,BJN,11.64,71.89,9.45,61.53,86.7,56.9,188.3
2015-08-15 09:25:00,BJN,11.65,71.89,9.45,61.51,101.0,60.0,200.4
2015-08-15 09:26:00,BJN,11.67,71.89,9.45,61.48,116.4,67.8,213.5
2015-08-15 09:27:00,BJN,11.69,71.89,9.45,61.45,114.4,66.7,218.2
2015-08-15 09:28:00,BJN,11.70,71.89,9.45,61.43,123.0,60.5,220.0
2015-08-15 09:29:00,BJN,11.72,71.89,9.45,61.40,128.3,51.9,210.9
2015-08-15 09:30:00,BJN,11.74,71.89,9.45,61.38,121.2,43.4,201.6
2015-08-15 09:31:00,BJN,11.75,71.89,9.45,61.36,111.5,16.8,180.5
2015-08-15 09:32:00,BJN,11.77,71.89,9.45,61.33,119.0,11.6,156.7
2015-08-15 09:33:00,BJN,11.79,71.89,9.45,61.31,125.2,-3.4,140.4
2015-08-15 09:34:00,BJN,11.80,71.89,9.45,61.28,106.2,-26.7,129.2
2015-08-15 09:35:00,BJN,11.82,71.89,9.45,61.26,116.9,-1.0,119.5
2015-08-15 09:36:00,BJN,11.84,71.89,9.45,61.24,130.8,4.7,118.9
2015-08-15 09:37:00,BJN,11.85,71.89,9.45,61.22,116.7,-14.9,116.5
2015-08-15 09:38:00,BJN,11.87,71.89,9.45,61.19,98.7,-14.0,111.5
2015-08-15 09:39:00,BJN,11.89,71.89,9.45,61.17,87.6,3.6,109.2
2015-08-15 09:40:00,BJN,11.90,71.89,9.45,61.15,80.6,10.6,102.8
2015-08-15 09:41:00,BJN,11.92,71.89,9.45,61.13,80.4,21.9,97.0
2015-08-15 09:42:00,BJN,11.94,71.89,9.45,61.11,80.4,18.2,93.4
2015-08-15 09:43:00,BJN,11.95,71.89,9.45,61.09,78.1,14.2,90.0
2015-08-15 09:44:00,BJN,11.97,71.89,9.45,61.07,77.6,14.7,91.7
2015-08-15 09:45:00,BJN,11.99,71.89,9.45,61.05,86.8,14.5,91.7
2015-08-15 09:46:00,BJN,12.00,71.89,9.45,61.03,109.8,23.7,96.1
2015-08-15 09:47:00,BJN,12.02,71.89,9.45,61.01,117.7,16.3,107.0
2015-08-15 09:48:00,BJN,12.04,71.89,9.45,60.99,120.9,26.6,118.9
2015-08-15 09:49:00,BJN,12.06,71.89,9.45,60.97,116.7,13.7,122.6
2015-08-15 09:50:00,BJN,12.07,71.89,9.45,60.95,120.6,13.9,121.0
2015-08-15 09:51:00,BJN,12.09,71.89,9.45,60.94,119.3,14.2,123.8
2015-08-15 09:52:00,BJN,12.11,71.89,9.45,60.92,108.5,11.3,124.7
2015-08-15 09:53:00,BJN,12.12,71.89,9.45,60.90,102.3,26.9,129.0
2015-08-15 09:54:00,BJN,12.14,71.89,9.45,60.88,103.6,51.5,137.3
2015-08-15 09:55:00,BJN,12.16,71.89,9.45,60.87,124.2,61.4,145.2
2015-08-15 09:56:00,BJN,12.17,71.89,9.45,60.85,151.3,48.8,152.0
2015-08-15 09:57:00,BJN,12.19,71.89,9.45,60.83,169.2,23.8,160.6
2015-08-15 09:58:00,BJN,12.21,71.89,9.45,60.82,161.7,9.6,171.5
2015-08-15 09:59:00,BJN,12.22,71.89,9.45,60.80,144.0,-7.5,168.2
2015-08-15 10:00:00,BJN,12.24,71.89,9.45,60.79,136.7,-8.4,161.1
2015-08-15 10:01:00,BJN,12.26,71.89,9.45,60.77,155.5,18.6,168.5
2015-08-15 10:02:00,BJN,12.27,71.89,9.45,60.76,166.4,16.1,186.3
2015-08-15 10:03:00,BJN,12.29,71.89,9.45,60.74,155.0,10.4,190.8
2015-08-15 10:04:00,BJN,12.31,71.89,9.45,60.73,151.0,18.2,192.1
2015-08-15 10:05:00,BJN,12.32,71.89,9.45,60.71,156.6,8.6,193.2
2015-08-15 10:06:00,BJN,12.34,71.89,9.45,60.70,172.7,6.0,194.1
2015-08-15 10:07:00,BJN,12.36,71.89,9.45,60.69,164.8,-5.6,200.3
2015-08-15 10:08:00,BJN,12.37,71.89,9.45,60.67,157.7,-4.8,204.7
2015-08-15 10:09:00,BJN,12.39,71.89,9.45,60.66,178.0,2.5,214.9
2015-08-15 10:10:00,BJN,12.41,71.89,9.45,60.65,191.2,23.9,236.7
2015-08-15 10:11:00,BJN,12.42,71.89,9.45,60.64,196.5,47.2,250.1
2015-08-15 10:12:00,BJN,12.44,71.89,9.45,60.63,211.1,65.8,253.8
2015-08-15 10:13:00,BJN,12.46,71.89,9.45,60.62,238.7,54.9,245.9
2015-08-15 10:14:00,BJN,12.47,71.89,9.45,60.61,251.5,36.3,233.5
2015-08-15 10:15:00,BJN,12.49,71.89,9.45,60.59,258.0,33.3,245.8
2015-08-15 10:16:00,BJN,12.51,71.89,9.45,60.58,299.6,69.2,276.1
2015-08-15 10:17:00,BJN,12.52,71.89,9.45,60.57,324.5,68.6,294.0
2015-08-15 10:18:00,BJN,12.54,71.89,9.45,60.56,333.5,50.3,302.7
2015-08-15 10:19:00,BJN,12.56,71.89,9.45,60.56,366.1,54.8,300.4
2015-08-15 10:20:00,BJN,12.57,71.89,9.45,60.55,385.3,56.0,302.1
2015-08-15 10:21:00,BJN,12.59,71.89,9.45,60.54,368.9,36.0,296.0
2015-08-15 10:22:00,BJN,12.61,71.89,9.45,60.53,362.2,40.4,303.0
2015-08-15 10:23:00,BJN,12.62,71.89,9.45,60.52,342.9,34.4,287.4
2015-08-15 10:24:00,BJN,12.64,71.89,9.45,60.51,304.8,27.5,276.0
2015-08-15 10:25:00,BJN,12.66,71.89,9.45,60.51,300.4,39.0,271.7
2015-08-15 10:26:00,BJN,12.67,71.89,9.45,60.50,276.9,29.5,255.4
2015-08-15 10:27:00,BJN,12.69,71.89,9.45,60.49,245.9,6.7,218.3
2015-08-15 10:28:00,BJN,12.71,71.89,9.45,60.49,224.8,-23.6,168.7
2015-08-15 10:29:00,BJN,12.72,71.89,9.45,60.48,223.6,-16.9,145.3
2015-08-15 10:30:00,BJN,12.74,71.89,9.45,60.47,229.0,-1.2,133.6
2015-08-15 10:31:00,BJN,12.75,71.89,9.45,60.47,200.6,-42.5,97.1
2015-08-15 10:32:00,BJN,12.77,71.89,9.45,60.46,186.6,-124.5,37.5
2015-08-15 10:33:00,BJN,12.79,71.89,9.45,60.46,125.2,-213.4,3.2
2015-08-15 10:34:00,BJN,12.80,71.89,9.45,60.46,112.8,-148.9,47.3
2015-08-15 10:35:00,BJN,12.82,71.89,9.45,60.45,200.5,-3.6,136.9
2015-08-15 10:36:00,BJN,12.84,71.89,9.45,60.45,261.3,30.6,210.4
2015-08-15 10:37:00,BJN,12.85,71.89,9.45,60.44,315.6,55.6,269.9
2015-08-15 10:38:00,BJN,12.87,71.89,9.45,60.44,344.1,49.3,281.1
2015-08-15 10:39:00,BJN,12.89,71.89,9.45,60.44,363.6,26.2,273.3
2015-08-15 10:40:00,BJN,12.90,71.89,9.45,60.44,337.8,14.9,262.7
2015-08-15 10:41:00,BJN,12.92,71.89,9.45,60.43,323.1,12.8,235.3
2015-08-15 10:42:00,BJN,12.94,71.89,9.45,60.43,304.8,-7.5,192.3
2015-08-15 10:43:00,BJN,12.95,71.89,9.45,60.43,334.5,-32.6,162.1
2015-08-15 10:44:00,BJN,12.97,71.89,9.45,60.43,374.7,-46.1,165.2
2015-08-15 10:45:00,BJN,12.99,71.89,9.45,60.43,426.3,-43.1,185.0
2015-08-15 10:46:00,BJN,13.00,71.89,9.45,60.43,410.5,2.5,236.3
2015-08-15 10:47:00,BJN,13.02,71.89,9.45,60.43,413.2,51.2,255.2
2015-08-15 10:48:00,BJN,13.04,71.89,9.45,60.43,440.5,18.2,202.9
2015-08-15 10:49:00,BJN,13.05,71.89,9.45,60.43,423.1,5.6,185.1
2015-08-15 10:50:00,BJN,13.07,71.89,9.45,60.43,411.0,-8.8,157.7
2015-08-15 10:51:00,BJN,13.08,71.89,9.45,60.43,427.7,-13.7,143.2
2015-08-15 10:52:00,BJN,13.10,71.89,9.45,60.43,401.9,-38.0,129.1
2015-08-15 10:53:00,BJN,13.12,71.89,9.45,60.43,401.6,-86.9,95.9
2015-08-15 10:54:00,BJN,13.13,71.89,9.45,60.44,412.6,-112.7,97.3
2015-08-15 10:55:00,BJN,13.15,71.89,9.45,60.44,473.2,-42.5,143.8
2015-08-15 10:56:00,BJN,13.17,71.89,9.45,60.44,436.5,-26.7,145.0
2015-08-15 10:57:00,BJN,13.18,71.89,9.45,60.44,393.0,-42.2,125.3
2015-08-15 10:58:00,BJN,13.20,71.89,9.45,60.45,354.4,-55.0,110.3
2015-08-15 10:59:00,BJN,13.21,71.89,9.45,60.45,309.7,-66.7,101.3
2015-08-15 11:00:00,BJN,13.23,71.89,9.45,60.45,286.4,-53.2,99.3
2015-08-15 11:01:00,BJN,13.25,71.89,9.45,60.46,297.2,-82.8,75.5
2015-08-15 11:02:00,BJN,13.26,71.89,9.45,60.46,291.7,-118.5,77.1
2015-08-15 11:03:00,BJN,13.28,71.89,9.45,60.47,304.6,-23.9,121.8
2015-08-15 11:04:00,BJN,13.30,71.89,9.45,60.47,353.1,43.2,107.6
2015-08-15 11:05:00,BJN,13.31,71.89,9.45,60.48,356.4,-0.6,57.3
2015-08-15 11:06:00,BJN,13.33,71.89,9.45,60.49,343.7,-15.2,31.6
2015-08-15 11:07:00,BJN,13.34,71.89,9.45,60.49,339.3,1.1,31.3
2015-08-15 11:08:00,BJN,13.36,71.89,9.45,60.50,333.9,15.6,47.2
2015-08-15 11:09:00,BJN,13.38,71.89,9.45,60.51,313.8,21.7,45.2
2015-08-15 11:10:00,BJN,13.39,71.89,9.45,60.51,282.2,-0.4,10.4
2015-08-15 11:11:00,BJN,13.41,71.89,9.45,60.52,234.4,5.6,-8.8
2015-08-15 11:12:00,BJN,13.43,71.89,9.45,60.53,196.2,7.0,-25.1
2015-08-15 11:13:00,BJN,13.44,71.89,9.45,60.54,203.3,-9.0,-23.9
2015-08-15 11:14:00,BJN,13.46,71.89,9.45,60.55,237.0,31.3,18.3
2015-08-15 11:15:00,BJN,13.47,71.89,9.45,60.55,197.1,95.8,56.7
2015-08-15 11:16:00,BJN,13.49,71.89,9.45,60.56,143.4,127.7,44.2
2015-08-15 11:17:00,BJN,13.51,71.89,9.45,60.57,103.4,128.5,4.0
2015-08-15 11:18:00,BJN,13.52,71.89,9.45,60.58,74.7,133.1,-33.2
2015-08-15 11:19:00,BJN,13.54,71.89,9.45,60.59,53.1,142.0,-65.9
2015-08-15 11:20:00,BJN,13.55,71.89,9.45,60.60,34.2,145.1,-96.4
2015-08-15 11:21:00,BJN,13.57,71.89,9.45,60.61,22.5,149.3,-124.9
2015-08-15 11:22:00,BJN,13.59,71.89,9.45,60.63,15.8,161.3,-141.5
2015-08-15 11:23:00,BJN,13.60,71.89,9.45,60.64,13.9,165.3,-154.7
2015-08-15 11:24:00,BJN,13.62,71.89,9.45,60.65,12.3,166.1,-165.4
2015-08-15 11:25:00,BJN,13.63,71.89,9.45,60.66,6.2,177.0,-168.7
2015-08-15 11:26:00,BJN,13.65,71.89,9.45,60.67,3.7,173.4,-176.2
2015-08-15 11:27:00,BJN,13.67,71.89,9.45,60.69,-9.2,183.3,-176.1
2015-08-15 11:28:00,BJN,13.68,71.89,9.45,60.70,-12.0,190.2,-180.0
2015-08-15 11:29:00,BJN,13.70,71.89,9.45,60.71,-11.9,195.4,-181.8
2015-08-15 11:30:00,BJN,13.71,71.89,9.45,60.73,-19.7,195.8,-182.1
2015-08-15 11:31:00,BJN,13.73,71.89,9.45,60.74,-21.9,212.3,-178.2
2015-08-15 11:32:00,BJN,13.75,71.89,9.45,60.75,-25.0,211.2,-177.6
2015-08-15 11:33:00,BJN,13.76,71.89,9.45,60.77,-32.4,213.0,-174.6
2015-08-15 11:34:00,BJN,13.78,71.89,9.45,60.78,-46.1,214.8,-170.7
2015-08-15 11:35:00,BJN,13.79,71.89,9.45,60.80,-65.4,212.2,-172.4
2015-08-15 11:36:00,BJN,13.81,71.89,9.45,60.81,-75.3,221.2,-175.3
2015-08-15 11:37:00,BJN,13.82,71.89,9.45,60.83,-88.4,228.8,-181.9
2015-08-15 11:38:00,BJN,13.84,71.89,9.45,60.85,-92.7,240.4,-191.6
2015-08-15 11:39:00,BJN,13.86,71.89,9.45,60.86,-84.0,244.9,-204.6
2015-08-15 11:40:00,BJN,13.87,71.89,9.45,60.88,-72.4,245.2,-211.4
2015-08-15 11:41:00,BJN,13.89,71.89,9.45,60.90,-62.3,239.1,-213.5
2015-08-15 11:42:00,BJN,13.90,71.89,9.45,60.91,-54.6,236.7,-211.1
2015-08-15 11:43:00,BJN,13.92,71.89,9.45,60.93,-54.7,233.9,-207.6
2015-08-15 11:44:00,BJN,13.93,71.89,9.45,60.95,-57.3,232.9,-203.7
2015-08-15 11:45:00,BJN,13.95,71.89,9.45,60.97,-58.1,223.5,-204.5
2015-08-15 11:46:00,BJN,13.97,71.89,9.45,60.99,-55.9,221.0,-203.3
2015-08-15 11:47:00,BJN,13.98,71.89,9.45,61.01,-55.0,219.1,-203.2
2015-08-15 11:48:00,BJN,14.00,71.89,9.45,61.03,-45.7,220.9,-205.2
2015-08-15 11:49:00,BJN,14.01,71.89,9.45,61.05,-38.4,218.8,-206.9
2015-08-15 11:50:00,BJN,14.03,71.89,9.45,61.07,-33.9,202.1,-213.4
2015-08-15 11:51:00,BJN,14.04,71.89,9.45,61.09,-35.5,206.2,-213.2
2015-08-15 11:52:00,BJN,14.06,71.89,9.45,61.11,-30.3,206.2,-215.3
2015-08-15 11:53:00,BJN,14.07,71.89,9.45,61.13,-31.5,207.3,-217.2
2015-08-15 11:54:00,BJN,14.09,71.89,9.45,61.15,-26.4,215.2,-221.0
2015-08-15 11:55:00,BJN,14.11,71.89,9.45,61.17,-10.9,218.1,-224.6
2015-08-15 11:56:00,BJN,14.12,71.89,9.45,61.19,1.2,211.4,-229.1
2015-08-15 11:57:00,BJN,14.14,71.89,9.45,61.21,9.7,219.7,-227.1
2015-08-15 11:58:00,BJN,14.15,71.89,9.45,61.24,15.7,219.0,-228.9
2015-08-15 11:59:00,BJN,14.17,71.89,9.45,61.26,25.3,216.5,-230.8
2015-08-15 12:00:00,BJN,14.18,71.89,9.45,61.28,23.1,210.6,-231.7
2015-08-15 12:01:00,BJN,14.20,71.89,9.45,61.30,22.7,207.0,-231.7
2015-08-15 12:02:00,BJN,14.21,71.89,9.45,61.33,25.3,211.3,-231.7
2015-08-15 12:03:00,BJN,14.23,71.89,9.45,61.35,26.0,201.3,-235.8
2015-08-15 12:04:00,BJN,14.24,71.89,9.45,61.38,28.5,206.6,-235.3
2015-08-15 12:05:00,BJN,14.26,71.89,9.45,61.40,25.5,205.0,-237.7
2015-08-15 12:06:00,BJN,14.27,71.89,9.45,61.43,29.2,193.3,-243.5
2015-08-15 12:07:00,BJN,14.29,71.89,9.45,61.45,37.2,197.0,-243.5
2015-08-15 12:08:00,BJN,14.30,71.89,9.45,61.48,46.5,197.9,-244.3
2015-08-15 12:09:00,BJN,14.32,71.89,9.45,61.50,54.0,217.8,-242.3
2015-08-15 12:10:00,BJN,14.34,71.89,9.45,61.53,83.1,220.0,-247.5
2015-08-15 12:11:00,BJN,14.35,71.89,9.45,61.55,102.8,193.8,-248.1
2015-08-15 12:12:00,BJN,14.37,71.89,9.45,61.58,116.2,179.3,-245.3
2015-08-15 12:13:00,BJN,14.38,71.89,9.45,61.61,105.6,168.3,-244.3
2015-08-15 12:14:00,BJN,14.40,71.89,9.45,61.63,102.0,165.5,-246.8
2015-08-15 12:15:00,BJN,14.41,71.89,9.45,61.66,96.3,158.3,-258.3
2015-08-15 12:16:00,BJN,14.43,71.89,9.45,61.69,108.9,176.7,-269.0
2015-08-15 12:17:00,BJN,14.44,71.89,9.45,61.72,126.2,167.7,-287.8
2015-08-15 12:18:00,BJN,14.46,71.89,9.45,61.75,174.6,186.8,-313.3
2015-08-15 12:19:00,BJN,14.47,71.89,9.45,61.77,227.9,168.7,-342.6
2015-08-15 12:20:00,BJN,14.49,71.89,9.45,61.80,236.3,142.1,-341.8
2015-08-15 12:21:00,BJN,14.50,71.89,9.45,61.83,214.6,105.7,-339.9
2015-08-15 12:22:00,BJN,14.52,71.89,9.45,61.86,197.9,81.7,-337.3
2015-08-15 12:23:00,BJN,14.53,71.89,9.45,61.89,183.1,63.8,-331.4
2015-08-15 12:24:00,BJN,14.55,71.89,9.45,61.92,182.8,59.2,-314.3
2015-08-15 12:25:00,BJN,14.56,71.89,9.45,61.95,177.9,79.5,-276.2
2015-08-15 12:26:00,BJN,14.58,71.89,9.45,61.98,155.1,98.7,-243.1
2015-08-15 12:27:00,BJN,14.59,71.89,9.45,62.01,127.0,117.2,-226.3
2015-08-15 12:28:00,BJN,14.61,71.89,9.45,62.04,100.2,134.6,-214.9
2015-08-15 12:29:00,BJN,14.62,71.89,9.45,62.08,76.4,160.0,-201.3
2015-08-15 12:30:00,BJN,14.64,71.89,9.45,62.11,54.8,173.2,-190.0
2015-08-15 12:31:00,BJN,14.65,71.89,9.45,62.14,45.0,183.3,-182.8
2015-08-15 12:32:00,BJN,14.67,71.89,9.45,62.17,32.0,173.7,-175.7
2015-08-15 12:33:00,BJN,14.68,71.89,9.45,62.20,5.7,172.0,-168.1
2015-08-15 12:34:00,BJN,14.70,71.89,9.45,62.24,-6.6,169.7,-169.1
2015-08-15 12:35:00,BJN,14.71,71.89,9.45,62.27,-14.6,170.6,-166.3
2015-08-15 12:36:00,BJN,14.73,71.89,9.45,62.30,-33.7,177.6,-155.6
2015-08-15 12:37:00,BJN,14.74,71.89,9.45,62.34,-39.0,177.3,-151.8
2015-08-15 12:38:00,BJN,14.76,71.89,9.45,62.37,-47.1,168.4,-147.4
2015-08-15 12:39:00,BJN,14.77,71.89,9.45,62.41,-57.2,163.1,-143.0
2015-08-15 12:40:00,BJN,14.79,71.89,9.45,62.44,-67.5,157.1,-144.5
2015-08-15 12:41:00,BJN,14.80,71.89,9.45,62.48,-73.6,156.1,-148.2
2015-08-15 12:42:00,BJN,14.82,71.89,9.45,62.51,-71.4,151.1,-154.9
2015-08-15 12:43:00,BJN,14.83,71.89,9.45,62.55,-75.5,143.1,-162.1
2015-08-15 12:44:00,BJN,14.84,71.89,9.45,62.58,-73.8,137.0,-171.6
2015-08-15 12:45:00,BJN,14.86,71.89,9.45,62.62,-65.7,125.9,-181.9
2015-08-15 12:46:00,BJN,14.87,71.89,9.45,62.65,-58.2,114.3,-190.1
2015-08-15 12:47:00,BJN,14.89,71.89,9.45,62.69,-53.6,107.4,-196.5
2015-08-15 12:48:00,BJN,14.90,71.89,9.45,62.73,-56.1,106.0,-202.2
2015-08-15 12:49:00,BJN,14.92,71.89,9.45,62.76,-53.8,102.1,-213.5
2015-08-15 12:50:00,BJN,14.93,71.89,9.45,62.80,-41.8,89.6,-227.2
2015-08-15 12:51:00,BJN,14.95,71.89,9.45,62.84,-17.7,68.5,-244.4
2015-08-15 12:52:00,BJN,14.96,71.89,9.45,62.88,14.6,63.4,-249.4
2015-08-15 12:53:00,BJN,14.98,71.89,9.45,62.91,32.6,68.9,-244.8
2015-08-15 12:54:00,BJN,14.99,71.89,9.45,62.95,26.2,71.2,-237.1
2015-08-15 12:55:00,BJN,15.01,71.89,9.45,62.99,25.9,56.4,-243.6
2015-08-15 12:56:00,BJN,15.02,71.89,9.45,63.03,38.8,47.2,-251.7
2015-08-15 12:57:00,BJN,15.04,71.89,9.45,63.07,36.1,37.5,-256.5
2015-08-15 12:58:00,BJN,15.05,71.89,9.45,63.11,38.8,9.3,-271.1
2015-08-15 12:59:00,BJN,15.07,71.89,9.45,63.15,60.2,-2.2,-278.8
2015-08-15 13:00:00,BJN,15.08,71.89,9.45,63.19,84.7,15.5,-271.0
